Theta_e
358 356 358 356 356 355 348 343 321 328 325 317 317 319 318 329 330 327 327 332 328 334 336 336 334 332 331 328 328 332 333 329 329 321 319 336 350 352 354 355 355 356 356 358 359 359 360 360 361 363 363 364 364 362 362 362 361 364 365 366 367 368 367 367 367 367 367 367 367 367 366 366 367 366 366 365 365 364 364 364 363 362 361 361 361 363 362 362 362 361 361 362 361 361 360 360 360
358 358 358 357 352 350 335 342 324 321 321 317 317 321 322 329 328 324 325 329 331 333 338 336 336 338 337 336 336 335 332 335 338 334 339 346 351 351 354 355 355 354 356 358 359 359 360 361 361 362 362 362 363 363 362 362 362 362 364 366 367 368 367 367 367 368 367 368 367 367 367 367 367 366 365 365 364 364 363 363 363 363 362 361 360 360 360 361 362 362 361 361 361 361 361 360 359
356 356 356 355 350 345 341 339 319 318 315 312 316 321 328 324 324 326 329 331 335 337 339 336 337 336 334 334 330 332 328 338 337 340 340 348 344 348 354 355 356 356 357 358 359 360 361 360 361 361 363 363 363 362 362 363 363 364 366 367 368 367 367 367 367 367 367 367 367 368 367 366 366 366 365 365 364 363 362 363 362 361 362 361 362 362 362 361 361 361 361 361 360 361 362 359 360
357 357 351 350 337 343 331 328 322 319 314 315 316 323 325 324 326 329 332 335 337 339 337 332 330 339 334 329 332 336 334 334 339 340 339 343 347 350 353 355 357 356 357 358 359 361 362 360 359 361 362 363 362 363 364 365 364 365 367 367 368 367 367 367 367 367 368 368 368 368 367 366 366 366 365 364 363 363 363 362 362 362 362 362 362 362 362 362 361 361 360 360 361 361 362 361 360
355 355 355 347 340 329 329 323 320 321 314 317 315 322 325 327 328 330 332 337 338 338 336 335 333 339 340 335 336 331 333 339 340 344 342 348 353 353 354 356 356 356 356 358 360 361 362 359 358 360 362 362 361 362 364 365 365 364 365 367 368 367 367 368 368 367 368 368 368 367 367 367 366 366 365 364 363 362 363 363 362 362 362 362 362 362 362 362 361 361 361 361 361 361 360 361 361
353 352 354 347 335 337 333 322 320 319 322 323 319 322 327 329 329 331 333 336 337 338 338 335 332 332 332 335 339 333 339 332 340 343 345 347 352 354 355 356 355 355 357 359 361 361 362 360 359 361 361 362 362 363 363 365 366 365 367 368 368 368 368 368 368 368 368 368 367 367 367 367 366 365 365 364 363 362 362 363 363 362 362 362 362 362 362 362 361 361 362 362 362 361 361 360 360
346 347 346 344 341 341 322 320 320 320 323 326 323 324 329 330 331 332 332 333 336 337 339 335 337 334 329 335 338 341 346 344 342 343 348 351 354 355 355 355 355 355 357 359 361 362 362 361 360 363 363 364 363 364 364 366 366 366 368 368 368 368 368 368 368 368 368 367 367 367 367 366 366 365 364 363 363 363 362 361 363 362 362 362 362 361 362 361 361 362 362 362 362 361 361 361 360
354 343 340 332 328 330 321 319 320 322 323 327 329 326 331 331 333 333 332 331 330 331 335 337 337 335 331 339 331 343 347 347 347 350 352 352 353 355 355 355 353 354 357 359 361 362 365 363 362 363 363 364 365 366 367 366 367 367 368 368 368 368 368 368 368 368 367 367 367 367 366 366 366 365 364 363 363 363 362 362 362 362 362 362 361 361 361 362 362 362 362 362 362 361 360 360 361
347 345 344 334 324 324 321 320 320 326 326 328 329 332 335 333 334 333 331 333 333 335 334 335 337 330 331 334 334 342 346 349 350 352 352 352 353 354 354 355 354 354 357 359 361 363 365 365 363 363 363 364 365 366 367 366 367 367 367 368 368 368 367 367 367 367 367 367 366 366 366 365 365 364 363 362 362 363 363 362 362 363 363 362 361 360 360 361 361 362 363 363 363 361 360 360 360
342 342 332 329 326 319 319 318 317 321 324 328 328 331 333 334 333 334 333 331 332 334 335 338 337 332 334 330 334 339 343 350 350 350 351 352 354 354 354 355 355 355 356 358 360 362 362 364 363 363 363 364 364 365 366 366 367 367 366 367 366 366 367 367 367 367 367 367 366 366 365 365 364 363 362 362 363 363 363 362 362 361 361 361 361 361 360 361 362 362 362 362 362 362 362 360 361
335 341 340 327 321 318 316 316 318 320 320 327 329 334 334 335 334 333 334 333 335 333 335 338 333 333 333 332 337 347 349 350 347 346 350 352 354 354 354 356 356 357 356 357 360 362 362 363 363 363 364 364 365 365 365 366 366 367 366 366 366 367 367 367 367 367 366 366 366 365 365 364 364 363 362 362 362 363 362 362 361 361 361 361 362 362 362 361 362 363 362 362 361 361 362 361 360
333 333 335 322 320 319 318 318 319 320 321 327 327 333 336 335 335 332 332 331 333 333 333 336 332 337 331 331 334 344 347 347 347 348 352 353 353 354 355 355 356 356 357 358 359 361 363 365 365 363 363 364 365 365 365 366 366 367 367 367 367 367 367 367 366 366 366 366 365 365 364 364 364 363 362 362 362 362 362 362 361 361 361 361 361 362 362 362 361 362 362 361 361 361 361 360 360
336 335 329 323 321 322 322 319 319 320 323 325 328 333 338 335 333 334 334 334 334 333 332 338 339 337 328 331 339 343 342 346 348 350 352 353 353 354 355 354 356 356 356 359 358 359 363 364 364 364 364 364 365 365 365 365 366 366 367 367 366 367 367 366 366 366 366 365 365 364 364 364 363 363 362 362 362 362 363 362 362 361 361 361 360 363 362 361 361 361 362 361 361 361 361 360 360
337 336 331 322 326 323 321 320 320 319 321 326 331 334 337 334 335 336 336 332 333 331 338 341 339 338 332 335 336 338 341 347 348 350 352 353 353 354 354 354 355 355 357 359 358 358 361 363 362 363 364 364 365 365 365 364 365 365 366 367 367 367 366 366 366 366 366 365 364 364 364 364 364 363 363 362 362 362 362 362 361 360 360 361 362 361 360 360 360 361 361 361 360 361 361 360 359
337 341 330 325 323 321 320 317 316 318 320 327 331 333 334 336 337 337 335 332 333 340 342 344 341 334 327 331 331 337 342 347 349 350 351 352 353 353 353 354 354 355 357 357 359 359 359 361 361 364 366 364 365 365 365 365 365 366 366 366 367 366 366 366 366 365 365 365 364 364 364 363 363 363 362 362 362 362 362 361 361 361 360 361 360 360 360 360 360 360 360 362 361 361 361 360 359
342 339 332 324 321 318 320 318 318 317 320 328 332 335 334 335 339 335 337 338 337 342 341 334 342 332 337 335 337 342 345 348 349 350 351 350 352 351 352 353 354 355 356 358 357 359 360 360 361 362 363 365 364 364 365 365 364 365 366 366 366 366 366 365 365 365 365 364 364 364 363 364 363 363 362 362 361 361 361 361 360 361 360 359 359 359 359 359 360 360 361 361 362 362 360 361 359
343 339 326 324 318 320 320 318 317 316 321 327 333 333 330 331 339 340 343 343 336 336 338 340 337 342 337 339 344 345 347 349 350 349 348 348 349 348 350 350 352 354 355 356 358 358 359 360 361 361 363 364 363 364 364 365 365 365 366 365 365 366 365 365 364 364 364 364 363 363 364 365 365 365 364 363 361 363 361 360 361 361 360 360 359 359 361 360 361 361 362 363 362 362 363 362 364
339 329 325 321 324 321 325 321 319 320 320 327 331 333 332 330 335 338 341 338 338 338 337 339 342 340 343 345 347 347 348 347 347 345 344 345 347 346 346 348 349 349 352 353 357 359 358 360 361 362 362 363 364 364 364 364 365 365 366 365 366 365 365 364 365 365 363 365 362 364 366 365 364 366 365 363 364 364 362 361 361 361 360 359 360 359 361 361 362 363 362 362 363 364 365 367 365
333 329 327 322 327 327 330 328 326 322 323 326 332 334 333 333 336 338 333 334 335 333 335 337 338 341 344 345 346 346 345 345 344 344 343 343 344 344 344 346 347 349 350 353 354 358 359 360 360 361 361 363 363 364 364 364 365 365 365 365 365 364 365 365 365 365 365 365 365 365 366 365 364 365 365 364 364 362 362 362 362 361 361 361 362 363 363 364 364 363 365 365 365 362 364 364 364
337 329 323 325 330 329 329 328 326 327 328 326 329 333 333 336 336 340 333 333 334 332 332 335 335 337 340 342 344 344 344 344 344 343 342 343 344 344 344 345 346 348 349 351 354 357 358 359 360 361 361 362 362 362 363 363 364 365 364 364 364 364 365 365 365 365 365 365 364 365 363 365 365 366 363 363 363 364 362 362 363 363 362 362 364 363 363 362 364 363 363 363 361 361 362 361 361
336 332 326 329 330 328 332 333 334 332 331 327 328 333 332 335 337 336 334 332 332 333 337 336 335 337 339 342 343 343 343 342 343 343 342 343 344 345 345 346 346 348 350 352 354 356 357 360 360 361 362 362 362 361 362 361 364 363 363 363 363 362 363 364 364 365 365 365 365 364 363 363 363 363 363 363 363 365 364 364 363 363 363 363 362 363 365 364 363 364 364 363 363 363 362 362 362
336 331 334 334 332 328 333 332 330 329 326 325 330 329 330 338 337 335 335 329 329 334 338 340 341 341 341 340 342 343 342 342 342 342 342 342 342 344 345 347 348 349 351 351 352 355 356 359 360 360 361 362 362 362 362 362 363 362 362 362 362 363 363 363 364 364 363 365 364 362 363 363 363 362 363 363 363 364 364 362 363 364 365 365 367 364 363 364 363 363 363 362 362 363 363 364 362
325 332 335 336 337 333 337 333 331 328 326 326 328 332 336 334 333 336 336 333 334 340 341 342 343 344 344 344 343 342 342 341 341 342 342 342 343 344 344 346 346 347 349 351 353 354 356 358 360 360 360 361 362 363 362 362 362 362 363 362 361 361 363 362 361 363 363 365 364 363 360 360 360 359 361 362 362 363 362 361 361 364 365 364 366 364 364 364 363 362 361 363 362 362 362 363 363
332 327 332 331 335 333 336 333 331 328 326 325 329 336 332 333 329 336 334 337 337 338 342 342 345 346 345 342 342 341 341 342 342 343 344 343 344 344 345 345 347 349 350 350 352 354 356 356 359 360 359 360 361 362 362 361 362 361 362 363 362 361 361 361 361 361 364 364 365 364 363 361 359 358 360 362 361 362 361 363 364 363 362 363 366 365 363 363 362 362 362 363 363 363 360 361 360
330 328 332 331 332 331 332 332 331 330 328 329 328 330 330 334 332 335 333 337 337 339 342 343 345 345 344 343 342 343 342 343 343 344 345 346 346 346 347 347 348 349 348 350 352 352 355 356 358 358 359 360 360 360 360 360 361 362 361 361 361 363 362 361 361 364 363 363 364 365 365 360 360 360 360 361 362 362 363 364 362 362 364 364 365 363 365 363 362 360 361 362 364 363 361 361 361
330 331 332 329 328 329 329 328 328 328 327 327 324 325 329 334 336 332 335 338 339 342 342 343 344 343 342 342 343 343 342 342 344 344 344 346 345 345 345 346 347 347 348 350 351 352 355 357 356 357 358 359 360 359 359 360 360 361 361 362 362 363 362 362 363 362 362 362 362 363 362 362 361 359 360 362 362 362 363 365 364 363 362 365 363 363 363 363 361 360 361 362 362 362 361 361 360
327 328 329 327 326 326 327 325 325 327 326 324 320 321 324 334 332 325 336 338 341 341 341 343 342 341 342 342 342 343 343 343 343 345 345 346 345 344 345 346 347 348 350 349 351 353 355 355 355 357 358 360 360 358 359 359 360 360 361 361 362 362 363 363 362 361 361 362 363 364 363 364 362 361 361 362 361 361 362 363 362 363 361 362 365 364 366 364 363 361 364 363 362 362 361 362 359
324 321 320 319 319 319 319 319 319 320 315 319 320 318 327 332 331 326 334 339 340 339 340 341 341 341 341 342 342 343 344 345 345 345 343 344 344 344 344 345 346 348 348 349 351 354 354 355 355 357 358 359 359 358 358 358 359 359 361 361 361 362 363 362 361 361 361 361 363 363 363 362 364 363 364 364 363 362 362 360 362 362 361 363 366 365 365 365 363 364 365 365 364 364 363 360 359
320 319 312 314 316 315 315 313 313 313 313 318 320 319 320 326 324 331 336 339 340 339 339 340 341 342 342 343 343 343 343 344 345 344 345 346 347 346 345 347 347 347 350 351 352 353 352 354 354 356 357 358 358 357 357 357 359 359 360 360 361 362 362 362 360 360 361 362 363 362 364 364 364 363 364 364 365 362 362 364 362 364 365 366 366 367 366 366 364 363 365 366 365 364 361 359 357
319 316 313 312 312 311 316 315 314 313 314 320 320 307 313 322 327 333 338 338 339 339 338 339 340 341 342 342 342 343 344 344 344 345 347 347 348 348 347 349 350 349 350 351 352 351 352 353 354 355 356 356 357 356 357 356 357 358 360 359 361 361 360 360 360 361 362 362 363 364 364 365 364 364 365 365 364 363 364 364 364 363 365 367 366 368 364 365 361 363 363 363 359 361 358 354 351
311 313 311 308 307 308 311 312 312 310 317 320 318 307 311 320 327 333 338 339 337 336 338 338 339 340 341 342 342 342 343 344 344 346 347 348 348 350 349 350 351 352 351 351 351 352 354 354 354 353 356 355 357 356 356 356 358 357 358 359 359 361 360 359 359 361 360 362 364 364 366 366 366 366 367 366 364 364 363 363 364 364 367 367 364 366 365 364 363 363 363 360 361 359 355 351 352
310 309 306 309 306 310 311 312 313 311 317 321 316 308 310 315 324 334 338 338 337 335 337 338 339 339 341 341 341 342 342 345 346 346 347 348 348 348 350 350 351 351 352 353 353 353 353 355 356 354 355 355 356 356 357 357 357 358 358 359 359 361 359 359 359 360 362 364 364 365 366 367 367 368 368 368 365 364 362 362 364 367 368 366 366 366 365 363 365 363 363 361 358 356 353 348 350
305 306 306 306 304 306 308 309 310 313 317 319 316 308 312 315 321 333 337 337 337 336 337 338 338 339 340 340 341 341 342 343 345 346 347 347 349 349 351 351 350 351 352 354 354 354 354 354 355 354 353 354 356 356 357 358 358 358 358 358 358 360 358 359 359 361 363 364 363 362 365 367 367 367 368 368 365 364 363 364 364 367 368 366 366 366 363 364 364 360 363 363 361 358 350 345 346
302 305 305 308 307 309 308 311 311 315 314 312 317 312 313 319 323 333 336 337 336 336 336 338 338 339 340 341 341 341 341 342 342 345 346 348 348 350 351 353 352 352 353 353 354 355 354 354 354 355 355 355 356 356 357 357 358 358 358 358 360 358 358 359 360 363 363 361 364 363 365 366 366 367 367 367 366 365 365 365 366 368 367 367 366 366 363 365 365 363 360 362 361 359 350 346 345
299 301 303 305 304 305 307 307 308 309 317 312 314 314 314 318 327 331 334 336 335 335 337 337 338 339 340 340 340 341 341 342 343 346 347 348 349 350 352 353 353 353 352 353 354 356 356 356 355 356 356 356 356 357 358 358 358 359 358 358 358 358 359 359 361 361 361 363 361 364 366 366 366 367 367 367 366 365 365 366 367 368 367 366 366 364 363 364 363 362 360 359 361 357 351 348 349
301 303 305 307 305 306 305 307 309 308 307 307 310 310 313 316 325 330 333 335 334 335 337 337 338 339 339 340 340 341 341 342 345 347 348 349 349 350 351 352 353 353 353 353 354 355 355 356 356 356 356 356 358 357 356 355 355 354 353 355 354 355 357 358 360 361 361 361 362 363 365 365 366 367 368 368 367 366 366 366 367 368 366 366 364 361 361 362 362 359 359 359 357 355 355 352 351
307 306 306 306 307 309 308 306 308 309 306 307 309 310 311 313 325 329 332 334 334 334 335 336 337 337 338 339 340 341 342 342 346 348 349 349 350 351 352 353 352 352 353 353 353 354 354 354 354 354 356 357 356 354 354 353 352 352 353 352 351 354 356 358 358 361 361 360 363 364 365 365 366 367 368 368 367 367 367 367 367 367 366 365 364 363 364 364 365 360 360 361 355 351 350 350 349
305 306 305 305 305 304 307 307 309 309 306 307 312 308 309 313 321 328 332 332 331 332 333 335 336 337 338 339 339 340 342 345 346 346 348 349 349 350 351 351 352 350 352 353 352 353 354 355 355 355 357 358 357 356 356 355 355 354 352 352 353 354 355 355 356 360 360 362 364 365 365 366 367 367 367 369 368 368 367 366 366 366 366 365 366 366 366 364 363 360 359 354 356 351 349 346 345
304 303 304 304 306 308 308 309 309 310 308 307 309 307 309 311 316 328 331 331 332 334 334 335 336 336 337 338 339 340 341 342 344 345 347 347 349 349 350 350 351 352 352 352 353 354 355 355 355 357 357 357 357 358 358 356 357 358 356 356 355 355 360 360 359 360 362 362 363 365 365 366 367 367 368 368 367 368 367 366 366 366 366 366 365 364 363 361 360 360 359 353 351 352 349 349 347
303 302 301 300 305 304 305 305 305 307 306 305 309 306 308 313 320 324 331 332 333 335 335 336 337 337 337 337 339 340 340 341 342 343 344 346 348 349 349 349 351 352 352 353 353 354 354 355 356 357 358 358 359 359 358 359 360 360 361 361 360 360 359 361 363 363 363 363 362 365 365 366 367 366 367 367 368 368 367 367 366 366 366 367 365 363 362 359 361 359 357 356 354 347 345 347 349
305 304 302 302 303 305 306 307 306 307 308 307 307 306 306 312 312 321 329 333 333 334 335 336 337 338 339 340 340 341 340 341 342 343 344 345 346 347 349 350 351 351 351 352 353 353 354 355 357 357 357 359 360 360 359 359 359 359 358 359 360 360 361 360 359 357 360 362 362 363 364 366 366 366 366 367 367 368 368 367 366 367 366 367 366 364 363 360 361 360 359 357 354 347 343 344 348
303 305 305 304 305 304 304 304 304 305 305 308 305 300 303 315 316 316 327 329 330 333 332 332 335 336 338 337 338 341 341 343 343 343 344 345 346 348 350 350 351 351 352 353 354 355 356 356 358 359 359 360 359 360 360 359 357 355 354 352 350 351 351 353 352 354 356 358 358 361 364 365 365 366 366 367 367 367 368 368 368 367 367 366 365 363 363 361 360 359 359 357 354 353 348 344 343
301 302 306 306 305 306 304 304 304 301 300 306 308 301 299 312 310 316 323 326 328 331 331 332 334 335 336 337 338 339 339 340 343 344 345 344 346 347 349 350 351 351 353 355 356 356 357 357 359 359 359 359 360 360 360 359 357 357 356 354 353 352 351 354 357 358 359 361 362 362 363 364 366 365 365 367 367 368 368 369 368 368 367 367 366 364 361 360 359 360 359 356 354 354 350 344 341
300 306 307 306 305 304 304 305 305 304 307 307 306 305 300 300 306 314 322 324 326 328 330 331 332 335 335 336 337 339 340 341 341 342 344 345 346 346 347 350 351 350 353 355 355 356 357 358 359 359 359 359 360 360 360 359 357 357 357 357 356 355 354 356 359 360 362 363 362 362 363 364 366 366 365 368 368 368 369 369 369 368 367 366 364 363 361 361 361 360 359 358 357 354 350 345 341
303 305 307 305 306 306 306 305 305 305 303 300 304 306 300 300 308 315 320 317 323 325 328 330 332 334 335 336 337 338 340 341 341 341 342 344 345 346 348 349 351 352 353 353 355 356 357 358 359 360 359 360 360 360 359 358 359 359 358 357 356 357 358 358 360 360 360 361 360 362 364 364 367 368 367 367 369 368 368 369 369 368 367 366 363 362 362 362 361 358 356 354 353 353 351 349 345
305 306 308 307 306 306 306 304 303 303 299 296 302 304 298 299 306 307 318 314 316 322 327 330 333 334 334 335 337 338 340 341 342 342 343 344 345 346 348 350 351 351 353 355 356 356 357 358 358 359 358 359 360 360 360 360 359 360 358 357 356 356 358 358 358 358 359 361 359 361 363 364 364 366 367 368 369 369 369 369 368 367 367 364 362 362 362 361 360 359 357 355 354 352 352 350 346
307 307 305 304 304 304 305 304 303 301 294 297 302 303 301 296 303 306 309 312 317 320 327 331 333 334 335 336 337 337 338 340 341 342 343 345 346 347 348 347 350 351 352 353 354 355 356 356 358 358 358 359 360 359 360 359 359 359 358 358 357 357 358 357 356 357 358 359 358 360 361 362 364 364 365 367 367 368 369 369 367 367 367 366 362 362 361 361 359 358 356 356 354 352 351 350 349
307 304 303 302 302 303 302 301 303 295 293 301 303 302 302 294 301 307 313 318 319 319 320 326 330 332 334 336 336 337 338 339 340 341 342 344 345 346 347 347 348 349 351 351 352 353 354 356 356 357 358 359 358 359 359 359 359 359 359 358 357 357 358 356 356 355 358 358 358 359 361 362 364 364 366 364 366 365 368 367 368 367 366 363 361 362 362 363 361 358 356 354 353 352 353 351 350
305 303 302 296 296 295 292 297 291 292 292 298 302 302 299 298 305 308 313 314 319 321 319 322 327 331 334 335 336 337 338 339 340 341 342 342 343 344 344 346 348 348 349 350 350 351 353 355 356 356 357 358 358 358 358 359 359 359 358 358 358 359 358 358 357 357 359 358 358 359 361 360 362 362 363 363 364 365 366 366 365 363 362 362 362 362 362 364 362 358 357 354 353 352 350 351 348
302 300 299 295 291 290 287 292 294 294 298 299 299 303 297 303 305 309 309 315 318 322 325 324 327 332 334 336 337 337 338 339 339 340 341 342 343 344 345 346 347 348 348 348 350 351 352 353 356 355 356 358 358 358 358 358 359 359 360 359 358 359 358 358 358 357 359 359 360 359 360 359 361 361 362 363 365 366 366 366 366 365 365 364 362 363 363 364 362 358 357 354 352 353 352 351 350
302 305 302 298 296 292 288 291 289 290 294 296 301 297 296 296 302 311 311 313 317 321 323 327 328 331 335 336 337 337 338 339 340 340 340 341 344 345 344 346 347 347 347 347 348 350 353 353 355 355 356 358 358 358 358 357 358 359 360 360 359 359 357 357 357 358 359 359 360 360 361 361 361 362 363 366 368 367 367 367 367 366 364 363 362 362 362 363 361 359 357 355 353 354 352 350 349
304 305 305 300 298 302 293 296 294 294 294 294 296 296 304 301 313 314 316 314 314 318 322 324 326 328 330 332 334 335 336 337 339 340 340 342 344 346 345 345 346 347 348 347 348 351 351 352 355 356 356 357 357 358 357 358 358 359 360 360 359 359 359 359 359 360 361 361 361 360 361 363 362 363 366 367 367 367 367 366 366 364 364 362 362 362 363 361 360 357 356 355 353 353 351 351 350
301 303 298 301 307 303 298 298 300 297 295 293 302 299 302 309 308 310 312 313 313 315 317 320 322 324 328 328 330 333 335 337 338 338 339 342 343 345 345 345 345 346 346 347 349 350 351 353 353 354 356 357 357 358 357 358 359 359 359 360 359 359 358 358 357 358 356 360 361 361 360 361 363 364 364 366 366 367 367 367 366 364 363 362 362 362 362 362 360 357 356 354 353 351 351 351 350
302 298 302 306 308 306 301 293 298 294 291 295 296 295 298 299 297 315 310 312 312 313 315 318 322 325 325 325 328 331 333 335 338 340 341 343 343 344 344 344 345 345 345 347 350 350 352 353 352 353 355 355 357 357 357 358 358 358 359 359 360 360 358 357 358 358 359 359 360 361 360 360 361 362 362 364 365 366 366 366 366 365 363 362 362 361 362 362 360 357 356 355 353 353 351 351 351
305 303 309 301 295 295 302 298 290 290 290 292 296 297 298 300 301 308 309 310 312 314 317 317 319 322 323 325 327 330 333 334 336 338 340 340 341 343 344 343 344 345 347 349 349 349 350 351 353 352 353 354 356 356 357 358 359 358 358 359 360 360 359 359 359 360 361 360 358 358 358 359 361 362 363 364 364 364 365 365 365 364 363 361 362 361 362 361 359 357 355 353 353 352 351 350 351
304 307 304 308 303 300 297 298 300 298 292 292 292 295 294 303 303 306 307 314 315 315 316 316 318 321 324 325 326 328 330 332 334 335 337 339 340 341 342 343 343 344 345 346 346 347 346 348 351 352 353 356 356 356 357 357 358 358 358 360 360 361 361 360 360 361 359 359 358 358 359 358 360 361 361 363 363 362 363 363 363 361 361 361 362 360 360 361 359 357 355 353 352 351 349 350 349
300 301 301 301 302 304 304 301 298 295 294 294 293 292 299 306 309 307 308 312 317 317 318 320 320 321 323 326 327 329 330 331 332 334 336 337 339 340 341 343 343 344 345 345 344 345 346 347 348 350 352 353 353 354 356 357 357 357 359 359 359 360 360 360 360 361 360 360 360 360 359 359 361 360 361 361 361 362 364 363 362 362 361 362 362 361 362 360 358 357 356 355 353 351 349 349 350
303 301 300 301 299 296 294 294 300 299 296 292 293 292 301 305 311 311 311 313 315 321 320 321 321 321 324 325 328 331 331 332 333 333 334 336 338 339 340 342 344 343 342 343 343 344 345 345 346 348 349 351 351 353 355 356 357 357 358 358 358 359 359 359 359 359 359 359 360 360 360 361 360 361 361 360 361 362 363 363 362 363 363 364 365 364 361 360 358 356 356 354 353 351 350 350 349
Wind_Speed
10 8 7 7 5 4 3 1 1 2 2 1 2 0 3 1 3 4 4 5 5 5 4 8 11 9 2 2 4 7 3 2 3 2 5 5 9 13 11 13 14 12 12 11 11 11 13 12 14 16 17 18 18 17 17 16 13 12 15 15 16 16 17 17 17 17 17 16 15 15 15 14 14 14 13 13 13 13 13 12 12 12 12 10 10 11 11 11 11 11 11 11 11 10 10 9 9
9 8 8 6 5 3 2 2 1 1 3 1 3 0 3 3 4 1 5 6 3 7 6 10 8 7 6 10 10 9 8 6 3 3 4 7 13 11 11 14 15 15 12 11 11 11 12 13 14 16 18 18 18 18 18 18 19 16 17 17 16 17 17 18 17 17 16 16 16 15 14 14 14 13 13 13 13 12 11 11 11 11 10 10 11 10 11 10 10 10 10 10 10 10 9 9 9
8 8 7 5 3 3 3 2 1 2 2 6 4 3 3 3 2 3 5 4 8 10 10 11 11 7 7 6 6 4 3 3 5 7 7 12 15 9 12 14 14 14 14 11 11 11 10 13 12 16 18 18 20 20 20 18 16 18 17 16 16 17 17 17 17 17 16 15 15 15 14 13 13 13 13 12 12 11 11 10 10 10 10 10 10 10 10 10 10 10 10 10 9 9 9 8 8
9 7 7 6 2 2 2 0 1 2 4 3 3 4 2 4 5 7 6 8 11 12 11 13 8 3 2 4 4 6 6 5 6 10 9 12 6 14 13 15 15 13 12 11 12 10 10 15 15 16 17 18 19 19 19 18 16 16 14 16 16 17 17 17 17 16 15 15 14 14 13 13 13 13 12 11 11 10 10 10 10 10 9 10 10 10 10 10 9 10 10 10 9 9 8 8 8
8 6 5 2 2 1 2 2 1 1 3 1 4 1 2 5 8 8 8 10 11 11 10 8 5 6 8 7 2 2 4 7 8 7 9 9 10 15 15 16 14 13 12 13 12 11 11 16 15 18 18 19 19 16 15 19 17 16 15 15 16 16 16 16 15 15 14 14 14 13 12 12 12 12 11 11 10 10 9 9 9 9 9 9 10 10 10 9 9 9 10 10 9 8 8 7 7
7 6 3 2 0 1 2 2 1 2 3 1 0 4 5 6 10 10 11 10 9 8 7 8 4 7 3 4 3 2 8 5 9 7 11 8 15 15 17 15 14 13 12 11 11 10 12 16 16 19 20 20 18 17 16 16 17 17 16 16 16 16 16 15 15 14 14 13 13 12 12 11 11 11 11 10 9 9 9 8 8 8 9 9 10 10 10 9 9 10 10 10 10 9 8 8 7
7 5 3 3 2 2 1 1 2 2 1 4 1 2 7 9 11 13 12 10 6 7 3 6 11 10 6 4 7 6 2 4 9 9 10 13 15 15 16 15 14 14 13 11 10 11 15 16 18 18 19 19 19 19 18 17 17 16 15 15 16 16 15 15 14 14 13 13 12 12 11 11 11 11 10 9 8 8 8 8 8 8 9 9 10 10 9 10 10 10 10 10 9 9 9 8 8
3 3 3 2 1 2 1 2 3 3 2 4 1 1 8 12 12 11 12 8 9 7 7 10 7 5 5 3 2 4 4 4 5 12 11 14 16 16 15 14 14 14 13 12 11 10 14 15 20 20 20 19 19 18 17 17 16 15 15 15 15 15 14 14 13 13 13 12 12 11 10 10 10 10 10 9 8 7 7 7 7 8 9 9 9 10 10 10 10 10 10 9 9 9 9 9 8
3 2 1 2 2 1 2 2 2 3 4 4 3 2 8 12 11 11 9 6 9 7 10 10 7 5 5 6 5 5 4 7 9 12 15 16 16 16 12 14 14 14 14 12 10 11 12 14 17 19 19 18 18 17 17 17 15 15 15 14 14 14 14 13 13 12 12 11 11 11 10 9 9 9 9 8 7 6 6 6 7 7 8 9 9 9 9 10 10 9 9 9 8 8 8 8 8
3 2 1 2 2 3 3 2 1 2 3 1 3 9 10 10 10 9 10 9 8 10 8 5 2 6 11 7 6 5 6 10 12 12 15 16 16 15 15 15 15 16 14 12 11 12 11 15 18 18 18 18 18 17 17 16 15 14 14 14 14 14 13 13 12 12 11 11 10 10 9 8 8 8 8 7 6 6 6 6 6 7 7 8 8 9 9 9 9 9 9 8 7 8 8 8 7
3 2 1 2 1 3 2 3 3 1 2 2 4 8 10 10 10 8 6 8 10 8 8 8 8 12 9 7 4 4 9 11 14 15 16 16 15 14 14 13 15 15 14 14 12 11 12 13 18 18 18 17 17 16 16 15 14 14 13 13 13 13 12 12 11 11 10 10 10 9 8 7 7 7 7 6 6 5 5 6 6 6 7 7 8 8 8 7 8 8 8 8 7 7 7 6 7
2 2 2 2 2 3 3 5 6 3 2 4 5 9 7 11 10 9 9 10 8 9 9 9 7 12 9 8 4 6 10 11 14 15 15 15 13 14 13 12 14 14 14 14 13 11 11 11 12 16 17 17 16 15 15 14 14 13 13 12 12 12 12 11 11 10 10 10 9 8 7 7 6 6 6 5 5 5 5 5 5 5 6 6 7 7 7 7 7 7 6 7 6 6 6 6 6
3 1 0 3 1 1 4 6 3 3 2 5 6 8 8 11 10 9 9 8 9 9 8 6 14 7 7 7 7 9 10 12 14 16 16 14 13 12 12 12 13 13 13 13 12 12 12 10 11 12 14 17 16 15 14 14 14 13 13 12 11 11 11 11 10 10 9 9 8 7 7 6 6 5 4 4 4 4 4 4 4 5 5 5 6 7 6 5 6 6 6 6 6 6 5 5 5
2 0 1 3 1 3 4 4 4 2 3 3 4 9 10 8 6 9 10 10 10 8 6 11 12 8 10 9 8 9 10 14 15 17 14 15 13 13 14 12 14 13 13 12 12 12 11 11 10 11 13 13 12 13 14 14 13 13 13 12 11 11 11 10 10 9 9 8 8 7 6 6 5 5 4 3 3 3 3 3 4 4 4 5 5 4 4 6 6 6 6 5 5 5 4 4 4
3 1 2 3 3 3 1 2 2 3 1 5 6 11 9 4 7 9 11 10 8 5 9 10 7 9 7 12 10 12 14 16 18 16 15 15 14 13 14 12 13 12 12 12 12 12 11 11 11 10 12 11 12 10 9 12 13 13 12 12 11 11 10 10 9 9 8 8 7 6 6 5 5 4 4 3 2 2 3 2 3 4 4 4 4 4 5 6 6 6 5 5 5 4 4 4 3
3 2 1 3 2 2 2 3 2 2 0 4 8 9 9 4 7 9 4 3 7 7 12 6 7 2 7 10 10 16 19 18 17 17 15 15 14 13 13 13 12 12 11 11 11 11 11 11 10 10 10 9 11 9 10 10 12 13 12 12 11 10 10 9 9 8 8 7 6 6 5 4 4 4 3 3 2 1 2 2 2 3 3 4 4 5 5 6 6 6 6 6 5 5 5 5 4
4 2 3 2 4 2 1 2 2 1 3 3 9 11 9 6 6 4 5 7 12 10 8 4 9 1 8 7 14 18 19 18 17 18 17 14 12 11 11 10 11 11 9 11 10 10 11 11 11 9 11 11 10 10 9 9 10 12 11 11 11 10 9 9 8 8 7 6 6 6 5 3 3 2 2 1 2 1 2 0 2 3 3 4 4 5 6 7 7 6 6 6 5 4 5 2 2
5 4 3 5 4 5 2 3 0 3 2 6 11 12 9 8 7 6 7 5 5 10 5 6 3 1 7 10 17 19 19 19 19 19 16 14 13 12 12 12 11 12 11 10 11 11 11 10 11 10 10 11 10 8 7 7 8 10 9 9 8 9 8 8 7 6 6 5 6 5 3 3 2 2 1 0 1 1 1 2 2 3 4 4 4 4 5 6 6 6 6 6 6 6 5 2 2
6 3 4 5 3 1 1 2 4 4 5 2 10 13 12 10 12 8 7 6 9 9 5 8 6 9 13 16 19 20 21 20 21 19 19 19 15 16 14 12 12 13 12 10 10 12 10 10 11 11 10 11 11 10 7 7 8 7 8 7 6 8 7 7 6 6 5 5 4 4 3 2 2 2 2 1 1 2 2 2 3 3 4 5 6 6 6 7 7 7 7 7 5 4 2 2 2
7 5 6 9 5 5 6 5 5 6 7 5 10 11 11 9 10 9 8 10 10 12 9 9 10 12 15 18 21 21 20 20 19 19 20 19 17 17 16 16 15 14 13 12 11 11 11 10 11 11 10 11 10 9 8 8 7 7 7 7 6 6 6 6 6 5 5 5 4 3 3 2 2 2 1 2 3 2 1 2 3 4 3 3 5 4 3 3 6 5 5 5 2 2 2 2 3
6 8 8 2 3 6 5 6 9 9 8 7 9 7 9 11 9 10 9 9 11 11 14 16 17 17 18 21 22 21 21 20 20 19 20 19 18 15 15 14 14 13 12 11 11 11 13 12 11 11 11 10 11 9 8 8 7 7 7 7 6 6 6 6 5 6 5 5 5 3 3 3 3 2 2 2 2 1 2 2 2 1 2 3 4 4 3 4 4 4 4 3 3 3 3 3 3
4 11 10 7 3 6 6 5 3 5 5 4 7 11 12 8 8 11 15 10 9 14 16 13 13 20 21 24 23 21 22 22 22 21 21 22 21 19 16 14 14 13 12 12 13 12 13 12 12 10 11 11 10 9 8 7 7 7 7 7 7 6 6 6 5 5 5 5 5 4 3 3 3 3 2 2 2 2 2 2 2 2 2 3 3 4 4 4 4 3 4 4 3 3 4 4 3
8 10 12 11 11 13 6 3 4 4 4 4 8 7 7 13 9 12 15 16 1 5 9 14 13 18 21 20 22 23 23 23 23 23 22 22 21 19 17 16 15 15 13 13 13 12 12 13 12 11 11 11 12 9 8 8 8 7 7 7 7 7 6 6 6 5 5 5 5 4 4 4 3 3 3 2 3 2 2 2 2 2 2 3 3 4 4 4 3 3 3 4 4 3 3 3 3
12 8 5 10 10 16 13 12 10 9 8 7 5 8 11 13 12 12 15 16 4 4 11 14 14 14 18 21 22 23 24 23 23 21 21 21 22 22 19 18 15 13 13 14 13 13 12 14 13 13 12 11 10 10 9 8 8 8 7 7 7 7 6 7 6 6 5 5 5 5 4 4 3 3 3 3 3 2 3 2 2 3 2 2 2 3 4 3 3 3 3 3 4 3 3 4 4
13 12 10 10 10 13 13 13 13 11 11 11 6 10 15 17 14 11 17 14 6 7 12 16 17 16 17 19 21 20 20 20 20 20 18 16 18 18 17 14 15 14 15 15 14 14 14 13 14 14 12 12 10 10 10 8 8 8 8 8 8 7 7 6 6 6 5 5 5 5 5 4 4 3 3 3 2 2 2 3 3 3 3 3 3 3 3 3 3 3 3 3 3 3 4 4 4
13 14 7 8 11 11 11 13 12 11 8 6 9 15 15 16 6 13 15 13 10 12 14 17 18 18 18 19 20 20 20 21 19 19 19 16 17 19 18 16 15 17 16 16 15 14 14 14 15 15 14 12 11 11 10 9 9 8 8 8 7 7 7 6 6 6 6 5 5 6 6 5 4 3 3 3 3 3 3 3 3 3 3 3 3 3 2 2 2 2 2 2 3 3 4 4 4
5 11 14 15 14 14 12 13 13 8 9 7 12 14 14 10 10 11 9 13 13 14 15 16 19 20 19 17 18 18 19 21 22 18 17 16 17 19 18 18 17 17 17 16 15 14 13 14 15 14 14 12 11 11 11 10 10 10 9 9 8 8 7 7 7 6 6 6 6 6 6 6 5 4 3 3 3 3 3 3 3 3 3 3 3 3 2 2 2 2 2 2 2 3 3 3 3
10 7 9 12 11 13 14 13 14 5 9 12 13 12 5 9 10 14 11 15 16 16 16 17 17 18 17 19 19 18 17 17 16 18 21 21 17 18 19 17 19 17 17 18 15 13 14 16 15 15 15 13 12 12 11 11 10 10 10 9 9 8 8 7 7 7 7 6 7 7 6 6 5 4 3 3 3 3 3 3 3 4 4 3 3 3 3 2 2 2 1 1 2 2 3 3 3
9 8 11 10 9 12 9 11 8 7 9 9 11 4 6 11 13 10 13 15 16 16 16 18 17 16 17 18 17 16 17 17 17 17 19 17 15 16 19 18 17 17 14 16 15 16 16 16 15 15 15 14 13 14 12 11 10 10 10 9 8 8 8 8 8 7 7 7 7 7 7 7 6 5 4 4 4 4 4 4 4 4 4 3 3 3 3 2 2 2 1 1 2 2 3 2 1
7 9 9 10 9 11 7 6 5 9 3 8 9 7 7 16 15 12 16 17 17 16 15 16 14 14 15 17 16 17 16 18 19 18 17 16 17 16 17 17 17 15 13 13 16 17 15 13 12 13 14 15 15 13 11 11 11 10 9 9 8 8 8 8 8 7 7 7 7 7 7 7 6 5 5 4 4 4 4 4 4 4 3 3 3 2 2 2 2 2 2 2 2 3 3 2 2
5 2 1 6 5 7 4 2 3 5 5 11 10 9 12 9 14 12 16 19 20 17 17 17 15 15 15 16 16 17 18 18 19 18 18 17 16 14 15 15 16 15 12 14 18 18 17 14 12 12 14 16 15 14 13 12 11 10 10 9 9 9 8 8 8 7 7 7 6 5 6 6 6 6 5 5 5 5 5 5 4 4 3 2 3 2 2 2 2 2 1 3 3 3 2 1 2
2 4 9 5 6 7 1 3 7 10 3 10 9 9 13 2 11 15 16 18 19 17 17 18 16 16 16 15 16 16 17 18 18 18 18 18 16 14 15 16 16 16 15 14 14 15 17 16 15 14 15 16 15 14 13 12 11 11 9 9 8 9 8 8 7 7 7 6 5 5 6 6 6 6 6 5 5 5 5 5 4 3 2 3 2 2 3 3 2 2 1 2 3 3 2 1 1
3 7 5 5 3 6 7 4 2 4 1 6 11 9 7 2 4 14 15 18 19 16 17 17 18 18 17 15 15 15 15 18 17 18 19 18 16 14 14 15 15 17 14 14 15 15 15 17 15 16 16 17 15 15 14 13 11 11 11 9 9 9 9 8 8 7 6 5 5 5 5 6 6 6 6 6 6 6 5 5 4 3 2 3 2 2 3 3 2 2 1 1 2 2 1 2 2
7 4 8 6 7 4 6 1 2 1 5 4 12 10 10 1 2 11 13 17 17 15 17 18 17 16 16 15 15 15 16 17 19 19 20 19 16 17 14 14 16 15 14 15 15 15 16 15 15 14 14 15 14 13 13 12 11 10 9 9 9 9 10 7 7 7 6 6 5 6 6 6 6 6 6 6 6 6 5 5 4 3 3 3 3 3 3 2 2 2 2 1 1 1 1 1 1
8 6 7 7 5 8 10 5 4 6 2 6 7 13 14 6 6 10 14 15 17 16 16 18 17 16 16 15 15 17 16 18 19 17 19 19 18 18 15 15 15 15 12 15 14 13 13 12 12 15 13 14 14 13 13 11 11 10 9 9 10 10 9 8 7 7 6 6 6 6 6 6 6 7 7 7 6 6 5 5 4 4 3 3 3 4 4 3 2 0 2 2 1 1 1 1 1
8 9 8 6 7 8 10 6 3 4 7 8 7 8 9 12 7 9 12 14 16 13 10 11 13 14 15 15 15 15 16 18 15 17 18 17 17 17 16 15 14 14 13 13 14 14 14 15 13 12 13 14 12 12 11 11 10 10 11 10 10 10 9 8 8 7 6 6 6 6 6 6 6 6 7 7 6 6 5 5 5 4 4 4 4 5 4 3 3 2 2 3 2 2 1 1 1
5 9 10 11 10 11 7 7 5 4 5 9 11 10 11 10 5 10 13 13 12 11 13 13 14 15 15 15 16 17 18 18 14 16 17 18 18 16 14 13 14 17 15 17 17 16 16 14 15 16 14 14 13 13 12 12 12 12 11 11 10 9 9 9 8 7 7 6 7 7 7 6 7 7 7 7 6 6 5 5 4 4 4 4 5 5 4 3 2 2 2 2 2 2 3 2 1
7 6 7 7 8 10 4 5 2 2 5 7 5 9 12 10 6 9 12 13 16 15 15 15 16 17 16 18 18 18 16 10 14 14 17 17 15 17 15 14 16 18 18 18 18 18 18 17 16 14 14 14 13 13 11 11 11 11 10 10 9 8 9 10 9 7 7 6 7 7 7 7 7 7 6 7 6 6 5 5 5 5 5 5 5 4 3 2 3 3 3 2 1 3 2 2 2
11 10 9 8 11 7 6 10 8 8 7 11 11 14 12 9 6 10 15 17 16 19 19 20 20 19 16 17 18 16 14 15 15 17 18 17 19 19 16 17 17 18 18 19 19 17 17 16 16 14 13 14 14 13 11 11 11 10 10 9 9 7 7 7 7 6 6 7 7 8 8 7 8 7 7 6 6 6 6 6 5 5 5 5 4 5 4 5 4 4 4 4 3 2 2 2 3
11 11 10 14 8 5 7 3 1 2 4 4 4 10 10 6 4 10 14 15 14 17 18 16 15 17 18 20 18 16 17 16 18 18 19 18 18 17 17 17 17 17 17 17 17 18 16 16 16 16 14 14 13 14 13 12 11 11 10 7 8 7 6 6 6 6 8 8 8 8 7 8 8 7 7 7 6 6 7 7 6 5 5 5 5 5 5 6 5 5 5 4 4 3 4 3 3
13 14 13 13 9 6 6 2 4 4 6 5 8 10 11 7 9 6 10 12 10 13 15 14 13 14 14 11 11 13 17 17 17 18 18 19 20 20 19 18 17 18 18 18 17 16 13 18 18 18 15 15 13 14 16 13 11 10 10 10 8 7 6 6 6 8 9 8 7 8 8 8 8 7 7 7 7 7 7 7 6 6 5 5 5 5 6 7 6 6 5 4 6 5 4 2 3
11 15 16 14 4 4 3 1 4 6 8 4 2 7 8 2 7 7 4 9 13 12 15 17 15 15 15 15 16 15 15 15 16 19 20 19 18 17 17 18 19 18 18 18 17 17 16 15 17 18 15 13 13 15 17 14 11 14 12 11 12 11 10 10 10 10 9 9 9 7 7 8 8 8 7 7 8 7 7 7 7 6 6 5 5 5 6 5 6 6 5 5 6 6 4 2 2
11 11 13 7 5 7 6 6 2 7 8 1 1 8 12 2 5 5 6 9 13 10 15 15 15 14 15 16 15 16 17 16 16 16 16 18 19 19 19 19 20 19 18 16 16 17 18 16 16 16 14 13 14 15 18 12 15 12 14 14 12 12 11 9 8 9 8 7 7 8 7 7 8 8 8 8 7 8 7 7 7 7 6 5 5 5 7 7 6 6 5 5 5 4 4 3 4
12 6 10 9 10 10 9 7 8 9 5 10 6 7 9 12 10 6 6 9 11 13 15 16 16 17 17 16 17 17 17 18 17 19 19 19 19 21 22 22 20 21 18 17 16 16 18 17 16 17 14 13 13 14 17 16 15 14 14 13 11 11 12 9 10 8 7 7 8 9 7 7 8 8 8 8 8 8 7 7 7 7 6 6 6 7 8 7 4 4 5 5 4 4 5 4 3
5 6 9 11 11 11 9 9 9 8 7 11 9 9 9 14 6 7 8 8 10 15 16 18 18 18 18 18 18 18 18 18 18 18 20 21 21 22 21 20 21 20 17 17 17 17 16 16 16 16 15 14 14 16 17 19 15 14 14 12 11 10 10 8 7 7 7 8 9 8 8 7 7 8 8 8 8 9 8 8 8 7 7 7 7 8 8 6 7 6 6 5 5 4 4 4 3
5 6 7 6 5 6 8 6 7 4 6 14 11 10 10 15 11 5 7 10 12 15 16 18 19 19 19 19 19 19 18 16 17 19 19 20 20 20 21 19 18 19 18 17 16 15 15 14 15 16 17 14 14 17 18 18 19 13 12 13 14 11 9 8 8 9 9 8 10 10 8 7 7 7 8 8 8 9 9 8 8 8 8 7 8 8 8 7 6 7 7 7 6 6 4 4 5
7 9 8 8 5 5 3 2 3 1 12 15 12 11 11 14 13 10 9 10 12 9 8 11 14 17 18 19 20 19 19 18 17 18 19 19 19 19 18 20 20 19 17 17 16 15 15 15 16 17 18 14 15 17 17 18 20 15 14 15 16 14 13 11 10 10 9 10 10 11 10 9 7 7 7 8 9 9 9 9 8 8 7 7 8 9 9 7 7 7 7 7 7 7 5 5 5
12 9 10 6 5 2 5 3 3 9 16 7 12 11 13 12 10 11 12 9 12 12 14 13 14 18 19 18 19 21 20 19 19 17 18 19 18 18 18 19 19 20 18 17 17 16 15 15 15 17 17 17 18 17 17 17 16 16 15 15 15 14 13 12 13 13 12 12 12 10 9 8 8 8 8 8 9 10 9 8 8 8 8 9 9 9 9 7 6 6 6 6 6 6 5 5 5
14 10 11 11 5 5 9 6 10 15 10 3 7 12 9 21 10 3 9 13 11 13 13 13 15 17 19 20 21 20 20 20 19 19 18 17 18 19 20 21 19 18 18 19 19 18 16 16 17 18 18 17 16 17 19 18 17 16 16 16 15 13 13 13 13 12 12 11 11 10 10 9 8 8 9 10 10 11 9 8 8 9 10 9 10 9 10 8 6 6 6 7 7 7 6 7 6
16 14 13 12 10 10 10 10 3 6 4 6 4 3 13 7 9 12 12 12 12 12 13 13 13 15 18 19 19 19 19 20 20 20 19 19 18 19 20 20 19 17 20 19 20 18 16 15 17 19 19 18 17 17 18 18 18 17 16 15 14 12 14 13 12 12 12 10 10 11 11 11 10 11 10 11 10 10 9 9 9 10 10 10 10 11 10 8 7 6 7 7 8 7 6 8 7
15 10 11 13 10 8 11 8 12 8 1 4 7 8 8 6 5 8 17 18 17 15 15 13 14 14 16 17 18 20 20 20 19 18 19 20 19 20 19 19 18 18 20 20 18 18 16 16 17 19 18 18 18 18 17 19 17 17 15 15 14 12 13 12 12 11 11 12 11 11 10 10 10 10 10 9 10 10 10 9 9 9 9 11 11 10 10 8 7 7 6 7 7 6 7 7 6
12 12 10 9 16 4 6 2 7 7 4 5 7 9 1 7 3 3 5 8 13 12 12 11 12 11 11 10 14 17 19 20 19 19 20 20 19 19 18 17 18 18 20 19 20 17 17 18 18 19 20 19 19 19 18 18 17 15 17 16 16 14 12 12 11 10 11 12 12 11 11 11 10 9 9 9 10 10 10 10 10 10 10 11 11 11 10 8 8 8 7 7 8 5 6 8 6
10 10 15 14 6 10 7 1 1 1 1 9 6 7 10 4 10 11 10 7 10 12 13 13 13 12 11 11 13 16 18 18 18 20 20 21 19 18 18 19 18 19 19 20 19 19 20 18 17 19 19 17 19 19 19 17 17 16 17 17 16 15 15 15 14 15 15 12 11 11 11 11 10 9 9 9 9 10 10 10 10 10 11 12 12 12 11 8 8 8 8 8 8 7 7 8 7
10 11 11 9 6 9 8 9 3 6 9 5 6 14 12 6 9 4 12 12 12 12 14 14 14 11 11 13 13 15 17 19 21 21 20 19 20 21 20 19 21 21 23 22 20 19 18 18 19 20 19 20 19 19 19 18 17 17 16 17 17 17 16 17 15 14 14 12 12 10 11 10 12 11 9 9 10 11 10 11 10 10 10 12 12 12 11 9 9 8 8 8 8 7 7 6 6
13 10 12 10 8 11 8 5 11 10 11 6 7 10 13 11 11 3 6 12 12 12 12 13 13 13 12 12 15 15 15 15 16 19 17 18 19 20 21 23 24 22 21 20 20 19 17 18 19 20 21 22 22 18 18 15 16 14 14 17 18 17 16 15 14 14 13 13 14 13 13 13 11 11 10 10 10 11 10 10 11 11 10 12 12 12 10 9 9 8 8 8 8 8 7 7 7
6 7 13 5 3 9 10 12 1 5 9 3 7 6 13 12 12 9 8 7 10 11 10 12 14 14 13 11 12 14 14 15 16 17 18 20 22 24 24 23 23 23 21 20 21 19 22 21 20 19 19 17 17 17 17 18 18 17 15 15 16 15 15 15 14 14 13 14 14 14 14 14 13 11 11 12 11 12 12 12 11 12 12 12 12 13 11 10 9 9 8 8 8 9 9 8 8
10 10 11 6 7 2 7 2 10 7 7 8 7 9 6 5 9 13 16 13 10 12 10 10 12 13 13 12 12 11 14 14 16 17 18 20 22 23 23 23 22 21 18 19 19 21 22 20 20 22 20 20 21 20 19 17 16 17 17 18 17 16 17 15 15 15 14 14 14 14 14 13 11 12 12 12 13 13 12 12 13 12 13 12 12 13 10 9 9 9 9 9 9 10 10 8 8
15 15 14 14 12 9 11 11 4 8 7 4 5 14 3 3 4 9 13 15 14 11 12 11 12 14 14 12 13 10 11 15 16 16 17 18 19 20 21 19 17 17 18 20 19 18 20 21 21 21 21 19 21 20 18 17 17 17 19 18 18 17 17 16 17 16 16 15 14 13 13 12 13 13 13 13 14 13 12 13 13 13 13 12 12 11 11 10 10 10 10 8 9 10 11 10 9
Wind_Direction
170 175 174 172 178 184 155 159 256 143 247 337 304 107 68 210 124 141 133 139 152 142 135 125 137 145 165 168 111 94 54 169 23 279 88 100 136 131 138 138 138 136 128 127 131 139 139 142 138 136 138 136 133 136 136 140 138 142 143 139 132 131 132 130 128 125 124 122 121 119 116 111 108 105 102 98 95 93 91 90 88 85 80 76 81 75 73 70 68 68 67 66 67 70 73 75 76
168 158 163 162 173 178 164 212 264 280 210 199 80 9 76 121 184 151 161 171 144 150 143 133 122 78 78 107 118 127 70 39 351 71 94 123 131 133 139 142 144 137 136 132 133 137 142 142 144 145 141 139 139 140 144 150 148 155 145 137 133 132 132 130 128 125 125 124 122 119 114 111 108 103 100 97 95 94 94 93 92 88 90 85 75 73 72 69 66 64 64 64 63 66 71 73 72
155 155 152 168 147 235 300 221 280 324 16 70 72 60 148 144 92 127 142 159 137 132 131 123 111 100 111 121 128 321 96 55 115 123 119 143 135 147 146 144 142 139 139 138 136 139 141 145 151 147 142 144 147 148 150 150 150 147 140 136 134 133 132 130 128 127 125 124 120 115 113 111 107 103 100 98 97 95 93 90 86 83 81 79 78 74 70 66 65 65 63 61 61 65 67 71 74
156 164 162 174 142 225 264 23 47 327 49 37 65 100 115 76 88 108 122 127 132 135 134 140 143 2 228 126 75 90 96 114 135 139 134 161 139 146 147 145 142 140 139 142 138 137 141 148 152 147 146 146 146 148 148 151 147 135 141 138 135 134 132 130 129 127 125 121 117 114 113 110 106 103 100 97 97 96 93 88 81 76 75 75 74 69 67 64 61 62 61 60 57 60 67 66 68
158 161 168 207 281 133 329 39 4 271 53 76 58 105 108 105 113 116 116 133 137 144 148 127 103 62 59 78 61 311 113 108 140 148 143 144 134 143 145 146 143 142 141 142 141 140 142 147 152 149 147 145 147 151 152 148 139 140 146 141 136 134 132 130 128 126 123 119 116 114 112 109 106 104 101 100 99 97 93 87 83 82 77 73 71 70 67 66 62 61 60 59 60 62 64 70 71
148 158 179 279 298 51 241 210 171 254 321 264 288 76 112 126 124 121 126 135 140 145 135 135 138 149 106 37 1 97 135 134 155 153 154 143 144 143 145 147 143 142 139 141 143 144 144 151 156 154 148 148 152 153 150 146 142 147 145 141 137 134 131 129 127 126 122 119 118 115 111 111 109 107 105 102 99 95 91 87 82 75 72 70 70 67 65 64 63 61 59 59 60 60 61 65 74
152 160 205 221 210 218 330 313 296 294 22 219 283 99 128 130 130 128 129 124 128 118 127 118 114 116 106 113 94 95 39 104 156 152 160 142 142 145 147 147 144 140 141 145 146 143 144 151 163 158 151 152 154 150 150 146 144 146 144 139 137 134 131 129 127 125 123 123 121 118 116 115 113 109 105 102 100 95 91 86 79 73 67 67 69 69 65 60 55 54 57 58 58 62 61 62 65
155 250 148 273 29 243 233 301 268 235 99 225 344 173 138 139 142 139 142 148 152 159 136 137 149 103 87 165 140 124 90 146 129 142 140 147 145 145 149 147 145 144 144 144 144 142 148 164 158 150 149 148 145 145 143 144 146 146 143 139 135 133 130 129 127 126 127 125 123 119 119 117 113 109 106 104 100 95 89 84 78 69 64 62 62 61 58 55 53 51 51 52 53 55 60 64 62
175 238 82 258 301 252 237 246 311 206 273 243 229 173 139 146 154 145 146 132 128 137 147 155 156 171 135 129 108 130 127 131 132 139 145 147 150 149 151 151 148 147 147 146 146 147 151 168 149 148 146 146 146 147 148 148 146 145 142 138 135 133 131 130 129 129 128 126 122 120 119 117 112 109 104 102 98 94 90 83 74 68 61 57 57 55 54 52 51 50 48 48 49 51 57 62 66
154 289 114 355 309 290 291 125 271 102 257 191 188 159 150 150 150 155 141 148 144 142 135 129 149 123 137 126 126 153 148 146 143 143 149 150 152 152 153 154 150 148 149 148 150 147 151 161 150 149 150 150 151 150 149 147 145 143 140 136 135 134 133 133 132 131 130 126 123 121 120 116 113 108 105 104 103 99 92 85 78 69 61 56 54 53 50 49 50 47 44 46 49 52 51 56 68
164 199 350 276 312 301 1 12 346 248 249 193 184 159 153 150 147 143 146 126 142 143 134 135 111 130 140 123 92 89 138 146 153 151 152 152 155 155 152 152 153 151 151 153 152 149 154 154 152 153 152 153 153 151 149 147 145 141 138 138 137 137 136 136 135 133 130 126 124 123 122 120 115 109 108 109 106 99 93 82 74 67 61 54 52 50 49 43 50 48 41 45 42 50 56 56 66
221 201 186 275 288 323 356 324 319 328 264 174 155 164 161 149 145 148 145 141 153 146 155 182 147 138 123 133 132 144 146 154 156 150 153 153 156 157 152 151 154 156 154 154 154 151 154 154 157 155 154 155 154 153 150 148 146 142 140 141 141 140 139 139 136 134 131 127 126 127 127 125 121 116 113 113 105 101 90 84 76 69 61 54 49 46 43 40 43 47 47 46 43 46 49 54 57
275 162 218 272 0 274 321 288 341 328 160 192 162 174 161 156 173 162 157 141 157 156 162 175 139 154 126 141 129 140 161 154 153 155 154 155 157 156 154 154 155 157 157 157 158 157 157 160 157 160 156 157 156 155 153 151 149 147 146 145 144 144 143 140 138 136 133 131 132 133 134 132 129 126 123 117 112 99 93 83 77 64 57 48 46 38 28 35 34 35 37 40 42 43 45 51 49
238 135 306 304 304 284 285 300 300 249 196 152 169 159 170 174 178 156 148 155 166 170 136 142 152 132 108 121 150 162 164 157 154 157 155 156 156 157 157 158 159 160 162 160 160 162 162 163 159 164 159 161 158 159 158 155 153 152 151 149 148 147 145 143 142 139 137 137 139 139 143 141 138 135 137 128 116 103 87 75 69 60 46 45 44 21 25 31 27 25 30 31 34 37 39 41 51
220 158 279 294 282 281 219 241 29 242 105 164 154 160 169 172 156 162 170 152 152 105 122 145 152 165 173 168 173 175 164 161 158 157 157 156 156 157 158 160 161 164 165 166 164 168 167 165 167 167 167 163 161 162 160 160 157 156 155 154 152 151 150 148 146 144 142 145 145 149 150 152 146 148 144 142 125 105 88 95 45 44 36 36 30 19 21 20 18 14 21 29 27 27 28 40 39
190 271 275 298 278 311 122 254 252 243 269 191 152 162 162 118 164 169 173 143 122 137 149 158 198 268 141 190 163 160 157 158 158 158 157 156 156 157 158 161 165 168 168 170 170 172 171 170 170 171 166 172 166 165 162 163 163 161 160 159 156 155 154 153 151 150 150 153 154 154 158 164 163 164 155 163 137 136 112 14 40 25 19 19 12 13 12 8 7 15 20 19 19 26 27 15 43
201 281 278 271 281 230 99 244 225 128 39 187 152 167 175 151 143 80 88 118 139 160 174 153 176 206 175 168 145 148 153 155 158 159 159 158 161 160 164 164 168 173 173 175 176 175 174 175 173 173 175 170 170 168 164 167 165 166 164 162 161 160 159 160 159 158 161 162 166 162 164 189 171 164 166 165 162 138 79 115 4 14 358 1 2 10 7 2 10 12 15 16 14 34 42 26 1
177 211 235 245 256 254 220 249 179 22 317 163 177 182 171 151 160 130 124 121 132 153 177 139 88 93 133 125 143 147 151 157 161 162 163 163 169 166 167 170 173 177 176 178 179 178 177 179 177 178 176 176 175 170 170 171 168 174 170 168 168 167 168 168 169 171 171 172 173 171 185 176 184 176 187 195 201 161 127 15 357 350 350 348 358 6 359 359 2 4 13 8 11 17 16 342 9
188 195 221 262 205 242 226 251 276 296 30 213 191 187 186 178 159 159 175 156 151 165 176 161 119 109 119 135 146 151 158 162 166 168 167 170 174 172 172 170 177 176 179 181 180 182 181 179 181 181 179 179 178 176 174 174 174 175 173 173 170 176 174 179 176 176 183 178 184 183 187 188 187 199 207 243 317 321 309 335 324 330 344 5 9 2 5 356 350 358 0 360 353 1 343 12 355
208 220 230 237 232 263 254 262 281 283 300 278 200 194 197 159 167 157 193 162 174 187 171 176 169 148 145 151 154 155 162 163 168 172 173 174 176 175 173 174 178 179 180 182 181 184 185 183 183 183 181 181 180 182 180 179 180 179 181 178 179 180 182 183 182 183 181 186 185 194 196 192 209 212 213 225 250 250 214 268 311 317 322 329 354 318 331 12 341 350 4 349 345 10 15 9 9
179 222 231 243 233 254 253 251 256 276 286 273 209 178 191 168 165 170 163 154 201 212 193 181 178 163 157 159 159 161 165 167 171 174 177 176 178 178 179 179 179 178 180 178 182 189 189 187 183 185 180 184 185 184 183 184 182 186 184 183 185 185 187 186 186 185 186 189 194 199 207 206 218 235 229 237 260 271 297 310 304 314 351 349 356 335 336 351 343 353 351 353 15 10 15 10 7
179 227 240 243 248 271 269 270 303 302 325 273 168 178 203 152 165 187 169 191 204 209 199 194 175 158 160 164 165 165 168 171 174 176 180 179 179 178 179 178 180 180 178 183 186 185 189 190 187 185 183 186 187 188 186 182 185 190 187 187 188 190 192 190 190 191 191 195 200 207 216 211 227 232 233 247 251 265 276 296 315 339 338 337 347 335 343 341 341 352 342 350 1 8 13 9 357
236 231 244 247 254 270 290 274 278 288 307 167 188 190 139 174 196 194 190 208 159 147 171 178 170 167 161 162 162 169 171 175 177 179 179 180 180 181 181 179 179 181 183 188 185 186 187 191 190 187 188 187 188 190 189 188 192 192 191 189 191 193 194 195 196 196 198 198 205 207 218 219 227 235 232 241 254 263 275 287 300 317 316 320 341 333 338 336 335 340 343 343 352 0 6 357 353
231 251 229 243 241 251 263 279 282 272 259 246 239 165 187 188 212 192 209 213 73 144 164 161 151 155 157 163 175 172 173 176 180 180 181 182 181 181 180 179 181 182 185 187 187 186 187 190 190 190 190 191 189 191 192 194 194 193 192 189 197 193 196 200 200 199 198 203 206 213 226 233 235 231 237 241 245 259 274 287 290 289 291 305 333 323 327 332 329 329 330 337 342 348 352 347 342
222 241 249 266 268 265 268 265 266 265 255 257 221 200 211 192 205 160 220 201 139 127 142 139 143 154 165 169 173 176 176 177 178 180 181 184 185 182 181 181 182 182 187 188 187 188 189 188 188 191 188 191 192 190 197 197 194 196 196 198 198 191 204 205 202 200 204 208 206 215 221 231 233 241 238 243 251 262 273 277 280 287 299 301 314 319 324 320 320 319 324 332 342 341 336 340 337
219 237 255 257 258 268 267 270 259 251 262 229 224 229 224 206 174 208 218 182 135 131 139 144 148 157 169 175 175 176 180 181 179 180 182 181 182 182 185 185 183 188 188 186 186 190 189 190 191 190 191 189 191 192 198 197 196 195 199 202 197 195 205 206 202 207 211 212 211 217 222 229 237 237 237 246 255 264 269 272 275 281 294 304 302 310 312 302 302 307 310 316 330 331 329 334 329
171 223 233 249 262 272 271 268 270 250 248 212 224 233 230 181 176 240 192 156 134 141 146 152 155 163 171 176 180 182 182 182 183 178 178 182 183 187 188 188 188 189 186 187 188 189 187 189 192 192 192 191 190 196 196 199 197 200 200 202 202 202 202 202 208 214 213 214 216 212 220 226 237 241 244 247 253 262 268 273 277 288 288 297 303 298 301 298 304 309 329 323 330 325 323 327 317
263 264 270 261 259 260 264 267 265 249 266 219 222 243 198 168 200 235 147 151 152 149 153 159 165 166 172 178 181 183 187 187 183 182 184 183 186 188 189 189 189 187 187 189 189 186 188 191 190 192 193 192 193 196 197 199 200 201 201 204 205 206 203 207 211 213 215 218 218 218 218 223 230 237 244 248 251 255 265 270 276 281 290 298 297 300 302 301 298 322 335 335 332 309 313 313 313
245 268 278 282 291 283 249 250 256 177 249 196 201 216 195 174 221 207 143 152 160 154 159 164 169 168 170 176 181 185 188 187 189 192 193 189 186 188 189 190 186 185 188 187 185 186 189 190 190 191 193 193 196 198 199 202 202 203 203 204 206 205 206 210 213 213 217 217 218 219 220 221 226 234 231 238 241 250 258 264 270 275 284 292 296 292 281 267 259 264 254 281 300 304 298 306 289
240 237 253 286 282 278 279 225 251 211 238 151 153 261 212 202 206 161 153 158 157 154 162 168 170 171 171 175 183 187 189 189 194 198 195 191 190 190 190 187 187 184 182 185 185 190 189 189 190 191 194 196 197 199 200 202 203 204 205 205 206 206 209 211 214 215 216 218 216 214 217 219 224 228 230 231 238 250 250 253 263 272 279 286 284 263 253 242 263 276 295 296 307 302 315 328 310
231 248 246 249 276 258 86 46 103 199 147 172 188 268 277 200 191 163 162 160 162 166 168 172 172 173 174 178 183 188 193 195 196 197 198 196 193 191 190 184 184 183 179 182 187 187 187 189 189 192 193 196 197 200 199 201 201 203 203 205 207 209 210 214 215 216 217 217 211 204 209 212 218 221 221 230 237 244 249 252 255 265 274 283 274 242 253 250 250 260 284 305 315 306 320 14 348
235 240 230 202 229 250 165 243 217 257 170 202 193 262 271 102 181 170 169 170 167 169 171 172 173 175 176 179 184 187 192 196 200 200 201 200 196 194 192 189 186 186 184 180 180 185 189 189 190 193 192 196 197 199 199 200 201 203 204 205 209 209 213 215 218 220 216 208 206 211 204 211 214 217 221 222 235 240 245 252 254 257 256 266 261 246 237 250 245 254 270 299 318 325 306 66 75
199 234 253 233 192 270 330 112 278 246 170 195 208 262 288 304 173 172 173 172 175 170 172 176 175 176 177 182 184 187 189 198 201 203 203 201 200 198 195 192 190 192 186 179 180 182 187 190 192 194 193 194 196 198 199 201 202 202 205 206 210 211 214 217 219 222 217 209 210 217 207 209 218 220 220 221 231 238 240 245 250 245 237 252 248 238 239 248 249 254 252 309 331 299 290 102 84
209 189 242 249 253 269 253 270 142 49 206 207 218 247 262 339 178 168 179 179 178 176 177 178 176 177 180 181 184 186 191 193 200 201 201 201 201 199 197 193 192 191 191 187 184 183 186 188 193 195 192 192 194 197 200 201 203 204 205 209 210 215 216 218 216 213 215 215 211 216 209 209 217 221 220 221 228 236 241 243 250 225 227 228 237 232 242 229 232 283 296 317 303 278 259 98 95
196 181 220 234 231 240 261 260 111 345 175 279 242 238 255 253 141 178 185 189 185 188 181 179 177 178 180 185 187 188 191 196 199 197 197 199 201 201 199 195 193 190 192 191 188 186 186 188 189 196 192 193 192 196 196 201 202 205 209 210 215 218 221 223 221 216 215 214 217 214 209 212 219 221 220 218 225 230 231 233 237 221 214 218 222 232 233 222 221 192 311 293 201 259 244 103 48
205 203 224 241 232 224 232 251 312 329 310 285 253 254 255 253 166 183 189 192 198 196 182 177 181 181 183 187 190 192 195 201 195 192 193 195 199 198 199 197 194 194 194 190 189 187 188 190 189 190 195 193 187 193 193 198 200 203 208 211 216 219 221 222 224 224 215 216 214 210 209 214 217 220 218 217 221 226 231 231 226 209 210 209 219 235 237 233 214 204 257 257 234 175 167 176 169
174 202 219 238 245 257 261 274 279 299 286 261 270 267 268 276 184 190 191 188 199 193 184 185 187 185 188 191 195 197 197 198 189 189 190 191 194 194 196 192 194 200 199 198 197 195 195 189 193 195 193 191 191 192 195 196 199 203 207 209 211 210 214 219 223 220 218 217 212 210 208 215 217 219 219 216 217 219 227 233 221 215 209 211 217 231 232 238 176 208 243 235 241 210 176 167 123
192 187 205 223 226 247 244 278 338 283 293 282 287 291 281 274 219 190 186 189 200 198 193 194 192 193 192 194 197 199 198 186 185 188 193 194 195 195 195 198 198 198 201 199 198 197 196 193 194 193 191 190 192 190 191 194 198 200 199 204 206 207 207 213 216 216 217 215 207 207 213 218 219 218 218 216 218 218 222 223 219 218 206 210 217 220 205 198 199 197 232 241 204 221 198 181 138
225 231 226 248 243 248 279 269 261 265 262 273 282 279 281 287 247 194 187 193 200 201 197 196 193 192 194 197 198 194 187 188 189 192 190 194 195 195 197 202 204 204 200 201 200 195 194 196 198 192 190 191 195 190 188 193 194 196 196 196 200 204 209 208 212 210 211 213 207 209 213 216 217 220 219 215 218 217 223 225 221 215 211 207 203 209 216 231 227 206 222 258 195 186 176 134 158
221 220 221 231 227 190 243 139 150 187 212 306 320 298 289 285 246 217 202 201 202 202 203 203 198 195 197 198 193 190 189 187 189 191 193 195 196 195 198 202 202 203 202 203 196 195 194 198 197 196 193 194 192 192 194 190 190 192 199 194 196 204 199 199 208 210 219 214 216 210 213 215 215 220 216 216 215 217 219 223 223 215 212 205 213 216 224 239 224 218 230 224 213 208 198 162 138
218 222 228 232 216 206 241 300 318 295 249 243 281 283 278 240 246 209 211 210 211 208 205 206 203 205 207 201 195 198 197 194 191 192 195 196 197 198 195 197 199 203 204 204 199 196 196 197 195 195 194 195 192 190 193 190 189 189 198 206 205 209 220 207 204 216 220 214 214 211 216 212 215 218 217 214 215 219 219 221 221 217 213 204 208 224 228 240 231 239 233 205 204 234 254 194 129
215 223 227 231 195 148 172 184 277 278 275 219 300 301 267 191 237 248 157 188 215 207 206 209 206 204 200 200 202 200 202 200 196 194 195 196 197 196 196 197 199 202 204 204 200 197 196 196 193 194 196 194 194 192 192 187 186 196 191 198 205 209 212 209 210 209 206 207 212 216 208 209 211 213 215 216 216 218 218 217 218 218 213 204 207 227 242 241 229 232 209 210 211 214 249 233 170
219 224 201 208 175 188 181 224 262 262 258 7 195 250 271 147 250 223 192 203 216 204 214 213 208 209 206 205 203 199 198 198 200 201 198 197 197 197 199 199 200 201 204 199 199 200 199 197 195 193 194 195 196 193 191 184 196 192 193 197 198 198 201 208 205 205 203 199 200 203 200 200 205 211 216 213 212 214 218 214 214 217 215 210 205 219 237 235 230 218 195 207 213 184 188 222 224
231 127 155 175 196 207 213 225 241 264 289 279 242 266 286 285 250 201 191 204 213 215 216 213 213 210 208 208 208 205 202 200 197 198 199 200 198 198 200 199 199 204 201 198 200 200 199 197 193 194 195 195 192 193 193 194 196 192 197 196 197 201 203 197 190 192 194 191 200 209 205 203 198 206 213 208 208 211 213 213 210 214 215 208 220 228 237 238 214 183 196 203 195 183 193 217 225
220 142 154 181 195 215 212 224 244 247 265 262 244 206 257 259 261 125 170 212 214 226 217 211 214 212 209 210 208 206 205 203 200 197 200 199 201 203 202 201 204 203 200 201 200 199 199 197 194 193 195 192 193 189 194 199 198 191 194 193 199 206 202 200 187 191 194 196 207 204 205 203 195 197 205 208 205 209 209 210 205 209 210 210 228 240 241 217 193 184 182 188 190 188 198 207 209
173 122 143 147 156 162 187 210 227 224 214 249 235 190 245 263 254 196 164 226 225 223 217 215 209 207 205 207 209 209 206 206 206 205 202 202 203 204 204 204 203 204 203 204 203 200 199 197 197 194 198 195 191 189 195 196 201 193 195 197 201 199 195 197 196 192 193 190 203 205 204 204 203 199 201 206 206 207 210 210 207 209 211 211 227 234 234 212 191 192 192 191 188 188 187 197 206
123 151 153 148 147 142 121 191 221 241 247 242 235 198 218 275 246 209 171 212 213 222 219 216 210 209 208 207 206 206 203 202 204 207 206 205 205 204 199 203 206 203 204 205 202 201 201 198 198 199 201 196 193 190 191 196 202 196 199 199 201 199 193 191 190 197 193 191 201 203 200 203 201 205 201 201 207 207 209 210 212 209 209 204 226 232 231 209 198 195 193 188 185 188 183 193 201
167 200 208 206 215 168 229 194 176 243 254 230 212 208 203 239 266 189 203 199 203 208 225 207 202 204 204 203 206 207 204 200 200 203 206 203 200 202 201 205 203 201 201 203 204 202 201 198 196 201 202 200 203 197 196 196 197 200 202 201 201 201 192 193 198 200 195 197 199 201 198 195 198 200 202 206 206 208 205 210 212 216 218 225 226 229 233 208 203 188 182 184 188 190 184 187 198
201 203 197 201 199 177 225 179 219 225 247 119 181 183 216 230 243 30 180 216 205 213 223 214 203 203 202 204 205 205 205 202 198 198 199 200 198 196 199 204 201 197 196 201 203 203 199 195 193 197 200 195 196 195 198 197 199 200 201 201 202 197 196 197 199 201 197 197 197 198 191 198 195 196 201 207 208 203 199 202 209 220 225 223 228 227 227 203 192 188 187 191 191 184 186 189 191
197 200 190 191 201 201 220 202 258 278 197 135 97 160 247 284 276 222 231 211 218 219 223 223 208 195 198 202 202 203 203 202 202 200 197 197 196 197 198 201 198 198 198 197 199 200 198 194 192 197 201 194 193 194 196 197 200 200 200 201 199 194 199 200 202 203 200 198 196 200 200 200 198 202 201 205 204 197 198 199 203 215 220 224 225 225 220 195 190 192 191 194 195 193 187 190 199
201 197 185 206 205 199 207 196 206 217 308 114 134 150 232 186 206 178 204 212 210 209 214 214 214 200 199 198 196 199 202 204 203 200 200 201 197 194 195 197 197 197 200 200 198 196 192 190 191 195 198 194 192 194 195 198 200 201 201 201 199 198 200 201 204 203 201 198 200 203 203 202 204 205 204 202 193 193 195 194 197 203 213 225 225 223 215 191 187 189 193 197 198 189 189 191 198
195 185 199 218 217 127 238 158 225 262 241 163 178 221 307 232 28 314 249 242 227 222 224 216 220 212 202 192 196 201 205 205 200 199 200 202 199 193 195 198 199 198 198 199 198 191 194 197 192 193 196 193 192 193 197 198 199 199 200 200 202 200 200 202 203 200 201 199 198 199 201 202 207 205 204 197 195 196 197 198 197 207 217 223 225 221 208 189 185 191 191 192 199 185 190 192 199
171 169 204 217 149 184 231 293 357 49 296 245 170 257 255 282 264 241 242 226 239 231 228 227 229 217 188 195 199 202 204 203 200 204 202 200 196 195 199 199 199 198 197 198 196 190 196 194 191 193 195 193 192 194 197 196 198 197 199 200 200 201 201 203 206 207 208 206 202 201 204 206 205 206 205 201 201 199 200 198 200 206 212 225 227 221 209 190 183 189 192 189 197 190 190 195 197
127 200 201 119 130 215 220 238 157 226 246 235 177 230 246 238 274 161 202 205 220 220 222 226 229 220 191 205 203 203 204 201 200 200 200 193 195 197 199 202 201 198 198 197 196 194 194 193 195 194 192 194 194 193 195 195 195 198 199 200 201 202 203 206 208 206 203 201 199 200 205 204 206 206 205 203 201 200 201 196 201 201 206 221 222 221 206 190 186 194 194 192 195 184 187 191 197
191 205 141 163 168 194 192 211 233 220 231 247 218 227 250 233 230 167 191 208 216 222 216 219 225 229 221 208 210 209 204 200 199 202 200 198 199 198 198 202 202 202 199 196 193 193 192 194 198 198 196 197 194 193 194 195 195 197 200 200 200 201 203 205 206 203 198 200 203 201 204 207 205 201 199 200 201 205 202 199 201 202 205 215 218 219 200 188 188 196 192 193 188 184 189 193 192
18 123 168 185 183 199 168 201 323 201 240 235 247 162 253 208 228 221 251 236 231 223 220 224 223 220 219 216 209 203 193 198 200 202 201 199 202 202 201 201 202 202 198 199 197 196 197 198 196 198 201 197 193 192 191 193 195 197 198 198 199 200 200 202 202 199 200 203 204 204 205 206 202 199 202 201 205 209 207 205 203 205 206 210 213 218 206 188 189 198 194 196 189 185 194 197 197
190 193 193 160 213 21 198 167 212 203 226 230 265 264 250 182 184 208 224 235 235 235 228 222 228 231 230 223 211 194 194 197 201 202 201 201 203 204 205 204 204 203 199 198 196 196 198 197 196 196 194 191 192 193 191 194 193 198 197 195 196 196 199 201 204 204 205 205 203 202 203 205 199 201 200 202 204 207 207 206 207 204 205 205 206 207 194 188 191 195 197 194 188 186 194 198 195
198 194 199 185 180 171 184 212 175 222 211 225 203 251 247 141 166 198 213 213 218 219 222 230 229 230 231 231 226 206 198 199 199 200 201 202 202 203 204 202 198 198 200 198 199 198 197 197 199 196 198 197 199 197 195 192 192 195 197 197 198 200 200 202 204 205 205 204 203 201 202 200 202 199 198 203 205 206 206 205 207 205 201 201 196 191 188 188 192 195 198 193 195 191 195 199 197